Kremmling, CO

11:17 PM MST on February 22, 2017 (GMT -0700)
Kremmling

Weather History for K20V - July, 2012

Change the Weather History Date:

Friday, July 13, 2012

  Actual Average Record
Temperature  
Mean Temperature 68 °F -  
Max Temperature 89 °F - 96 °F (2004)
Min Temperature 46 °F - 35 °F (2008)
Degree Days  
Heating Degree Days 0    
Month to date heating degree days  
Cooling Degree Days 2    
Month to date cooling degree days  
Growing Degree Days 18 (Base 50)    
Moisture  
Dew Point 32 °F    
Average Humidity 34    
Maximum Humidity 71    
Minimum Humidity 6    
Precipitation  
Precipitation 0.00 in - 0.02 in (2006)
Sea Level Pressure  
Sea Level Pressure 30.35 in    
Wind  
Wind Speed 3 mph (SE)    
Max Wind Speed 18 mph    
Max Gust Speed 25 mph    
Visibility 10 miles    
Events      
T = Trace of Precipitation, MM = Missing Value Source: NWS Daily Summary

Daily Weather History Graph

Daily Weather History Graph

Search for Another Location

Airport or City:

Trip Planner

Search our weather history database for the weather conditions in past years. The results will help you decide how hot, cold, wet, or windy it might be!

Date:

Astronomy

Jul. 13, 2012 Rise Set
Actual Time 5:48 AM MDT 8:34 PM MDT
Civil Twilight 5:16 AM MDT 9:06 PM MDT
Nautical Twilight 4:35 AM MDT 9:46 PM MDT
Astronomical Twilight 3:49 AM MDT 10:31 PM MDT
Moon 1:26 AM MDT (7/13) 4:06 PM MDT (7/13)
Length of Visible Light 15h 50m
Length of Day
14h 46m
Waning Crescent, 26% of the Moon is Illuminated
Jul 13
Waning Crescent
Jul 18
New
Jul 26
First Quarter
Aug 1
Full
Aug 9
Last Quarter

Hourly Weather History & Observations

Time (MDT) Temp. Dew Point Humidity Pressure Visibility Wind Dir Wind Speed Gust Speed Precip Events Conditions
12:09 AM 55.4 °F 41.0 °F 58% 30.37 in 10.0 mi Calm Calm - N/A   Clear
12:29 AM 59.0 °F 39.2 °F 48% 30.37 in 10.0 mi Calm Calm - N/A   Clear
12:48 AM 55.4 °F 37.4 °F 51% 30.37 in 10.0 mi Calm Calm - N/A   Clear
1:09 AM 55.4 °F 39.2 °F 54% 30.37 in 10.0 mi Calm Calm - N/A   Clear
1:29 AM 55.4 °F 37.4 °F 51% 30.37 in 10.0 mi Calm Calm - N/A   Clear
1:49 AM 53.6 °F 37.4 °F 54% 30.38 in 10.0 mi Calm Calm - N/A   Clear
2:09 AM 53.6 °F 39.2 °F 58% 30.39 in 10.0 mi Calm Calm - N/A   Clear
2:29 AM 53.6 °F 41.0 °F 62% 30.38 in 10.0 mi Calm Calm - N/A   Clear
2:49 AM 51.8 °F 41.0 °F 67% 30.38 in 10.0 mi Calm Calm - N/A   Clear
3:09 AM 51.8 °F 39.2 °F 62% 30.39 in 10.0 mi Calm Calm - N/A   Clear
3:29 AM 51.8 °F 41.0 °F 67% 30.39 in 10.0 mi Calm Calm - N/A   Clear
3:49 AM 51.8 °F 41.0 °F 67% 30.39 in 10.0 mi Calm Calm - N/A   Clear
4:09 AM 50.0 °F 39.2 °F 66% 30.39 in 10.0 mi Calm Calm - N/A   Clear
4:29 AM 50.0 °F 39.2 °F 66% 30.40 in 10.0 mi Calm Calm - N/A   Clear
4:49 AM 50.0 °F 41.0 °F 71% 30.40 in 10.0 mi Calm Calm - N/A   Clear
5:29 AM 50.0 °F 41.0 °F 71% 30.41 in 10.0 mi Calm Calm - N/A   Clear
5:49 AM 46.4 °F 37.4 °F 71% 30.41 in 10.0 mi Calm Calm - N/A   Clear
6:09 AM 46.4 °F 37.4 °F 71% 30.41 in 10.0 mi Calm Calm - N/A   Clear
6:29 AM 50.0 °F 39.2 °F 66% 30.42 in 10.0 mi Calm Calm - N/A   Clear
6:48 AM 50.0 °F 39.2 °F 66% 30.42 in 10.0 mi Calm Calm - N/A   Clear
7:09 AM 50.0 °F 37.4 °F 62% 30.42 in 10.0 mi Calm Calm - N/A   Clear
7:29 AM 51.8 °F 39.2 °F 62% 30.42 in 10.0 mi Calm Calm - N/A   Clear
7:49 AM 53.6 °F 41.0 °F 62% 30.42 in 10.0 mi Calm Calm - N/A   Clear
8:09 AM 55.4 °F 41.0 °F 58% 30.42 in 10.0 mi Calm Calm - N/A   Clear
8:29 AM 59.0 °F 42.8 °F 55% 30.42 in 10.0 mi Calm Calm - N/A   Clear
9:09 AM 62.6 °F 37.4 °F 39% 30.42 in 10.0 mi Calm Calm - N/A   Clear
9:28 AM 64.4 °F 37.4 °F 37% 30.42 in 10.0 mi Calm Calm - N/A   Clear
9:49 AM 69.8 °F 39.2 °F 33% 30.41 in 10.0 mi Calm Calm - N/A   Clear
10:29 AM 71.6 °F 37.4 °F 29% 30.40 in 10.0 mi SSW 3.5 mph - N/A   Clear
10:48 AM 73.4 °F 35.6 °F 25% 30.39 in 10.0 mi Calm Calm - N/A   Clear
11:09 AM 73.4 °F 35.6 °F 25% 30.39 in 10.0 mi Calm Calm - N/A   Clear
11:29 AM 77.0 °F 35.6 °F 22% 30.38 in 10.0 mi Calm Calm - N/A   Clear
11:49 AM 78.8 °F 33.8 °F 20% 30.37 in 10.0 mi WNW 3.5 mph - N/A   Clear
12:09 PM 80.6 °F 32.0 °F 17% 30.37 in 10.0 mi NW 3.5 mph - N/A   Clear
12:49 PM 86.0 °F 19.4 °F 9% 30.35 in 10.0 mi SE 5.8 mph - N/A   Clear
1:09 PM 89.6 °F 15.8 °F 7% 30.34 in 10.0 mi West 3.5 mph - N/A   Clear
1:29 PM 89.6 °F 17.6 °F 7% 30.33 in 10.0 mi SSE 5.8 mph - N/A   Clear
2:08 PM 89.6 °F 14.0 °F 6% 30.31 in 10.0 mi SSE 4.6 mph - N/A   Clear
2:29 PM 87.8 °F 15.8 °F 7% 30.30 in 10.0 mi East 5.8 mph - N/A   Clear
2:49 PM 89.6 °F 15.8 °F 7% 30.30 in 10.0 mi East 5.8 mph 9.2 mph N/A   Clear
3:09 PM 89.6 °F 14.0 °F 6% 30.29 in 10.0 mi East 8.1 mph - N/A   Clear
3:29 PM 87.8 °F 19.4 °F 8% 30.29 in 10.0 mi ESE 12.7 mph 17.3 mph N/A   Clear
3:49 PM 84.2 °F 19.4 °F 9% 30.29 in 10.0 mi ESE 12.7 mph - N/A   Clear
4:09 PM 84.2 °F 19.4 °F 9% 30.28 in 10.0 mi SE 12.7 mph - N/A   Clear
4:28 PM 87.8 °F 19.4 °F 8% 30.27 in 10.0 mi SE 10.4 mph - N/A   Clear
4:48 PM 87.8 °F 17.6 °F 8% 30.27 in 10.0 mi SE 9.2 mph - N/A   Clear
5:09 PM 87.8 °F 19.4 °F 8% 30.26 in 10.0 mi ESE 12.7 mph 17.3 mph N/A   Clear
5:49 PM 82.4 °F 23.0 °F 11% 30.26 in 10.0 mi ESE 15.0 mph - N/A   Clear
6:09 PM 82.4 °F 23.0 °F 11% 30.26 in 10.0 mi ESE 13.8 mph 19.6 mph N/A   Clear
6:29 PM 80.6 °F 26.6 °F 14% 30.26 in 10.0 mi ESE 15.0 mph 19.6 mph N/A   Clear
6:49 PM 80.6 °F 24.8 °F 13% 30.26 in 10.0 mi ESE 16.1 mph 21.9 mph N/A   Clear
7:09 PM 78.8 °F 23.0 °F 13% 30.27 in 10.0 mi ESE 18.4 mph - N/A   Clear
7:29 PM 78.8 °F 24.8 °F 14% 30.28 in 10.0 mi ESE 11.5 mph - N/A   Clear
7:49 PM 78.8 °F 24.8 °F 14% 30.29 in 10.0 mi ESE 6.9 mph - N/A   Clear
8:09 PM 77.0 °F 28.4 °F 17% 30.30 in 10.0 mi ESE 6.9 mph - N/A   Clear
8:29 PM 73.4 °F 28.4 °F 19% 30.31 in 10.0 mi South 3.5 mph - N/A   Clear
8:49 PM 77.0 °F 30.2 °F 18% 30.31 in 10.0 mi South 13.8 mph 20.7 mph N/A   Clear
9:08 PM 77.0 °F 30.2 °F 18% 30.32 in 10.0 mi South 17.3 mph 25.3 mph N/A   Clear
9:29 PM 73.4 °F 32.0 °F 22% 30.33 in 10.0 mi SSW 8.1 mph 18.4 mph N/A   Scattered Clouds
10:09 PM 71.6 °F 32.0 °F 23% 30.35 in 10.0 mi SSW 8.1 mph - N/A   Scattered Clouds
10:29 PM 71.6 °F 33.8 °F 25% 30.35 in 10.0 mi SSW 8.1 mph - N/A   Scattered Clouds
10:48 PM 69.8 °F 32.0 °F 25% 30.35 in 10.0 mi South 5.8 mph - N/A   Clear
11:08 PM 69.8 °F 32.0 °F 25% 30.35 in 10.0 mi East 4.6 mph - N/A   Clear
11:29 PM 69.8 °F 32.0 °F 25% 30.35 in 10.0 mi East 3.5 mph - N/A   Scattered Clouds
11:49 PM 69.8 °F 32.0 °F 25% 30.35 in 10.0 mi East 5.8 mph - N/A   Clear